GW1699 Weather Reports


time (UTC)temp
F
wind
direction
speed
knots
gust
knots
rain 1hr
in
rain 24hr
in
rain mn
in
humidity
%
barometer
mb
20260504024220 48 202 0.0 0.0 0.00 0.00 0.00 71 1013.8
20260504023633 48 201 0.0 0.0 0.00 0.00 0.00 68 1013.5
20260504023027 48 201 0.0 0.0 0.00 0.00 0.00 66 1013.5
20260504022437 48 201 0.0 0.0 0.00 0.00 0.00 68 1013.8
20260504021834 48 201 0.0 0.0 0.00 0.00 0.00 68 1013.8
20260504020620 49 202 0.0 0.0 0.00 0.00 0.00 74 1013.8
20260504020020 49 202 0.0 0.0 0.00 0.00 0.00 65 1013.8
20260504015443 49 202 0.0 0.0 0.00 0.00 0.00 66 1013.8
20260504014826 49 202 0.0 0.0 0.00 0.00 0.00 64 1013.8
20260504014244 49 199 0.0 0.0 0.00 0.00 0.00 65 1013.5
20260504013650 49 198 0.0 0.0 0.00 0.00 0.00 67 1013.8
20260504012412 50 201 0.0 0.0 0.00 0.00 0.00 72 1013.8
20260504011837 50 201 0.0 0.0 0.00 0.00 0.00 64 1013.8
20260504011214 50 201 0.0 0.0 0.00 0.00 0.00 67 1013.8
20260504010635 50 201 0.0 0.0 0.00 0.00 0.00 66 1013.8
20260504010049 50 201 0.0 0.0 0.00 0.00 0.00 69 1013.8
20260504005438 50 202 0.0 0.0 0.00 0.00 0.00 67 1013.8
20260504004247 50 202 0.0 0.0 0.00 0.00 0.00 60 1013.5
20260504003614 50 201 0.0 0.0 0.00 0.00 0.00 70 1013.5
20260504003040 50 199 0.0 0.0 0.00 0.00 0.00 70 1013.2
20260504002436 51 198 0.0 0.0 0.00 0.00 0.00 69 1013.5
20260504001818 51 198 0.0 0.0 0.00 0.00 0.00 67 1013.5
20260504001219 52 198 0.0 0.0 0.00 0.00 0.00 68 1013.2
20260504000654 52 190 0.0 0.0 0.00 0.00 0.00 67 1013.2
20260504000042 52 197 0.0 0.0 0.00 0.00 0.00 66 1013.5
20260503235412 52 192 0.0 0.0 0.00 0.00 0.00 64 1013.5
20260503234815 52 194 0.0 0.0 0.00 0.00 0.00 60 1013.5
20260503234236 53 192 0.0 0.0 0.00 0.00 0.00 60 1013.5
20260503233627 53 191 0.0 0.9 0.00 0.00 0.00 59 1013.5
20260503233035 54 185 0.9 0.9 0.00 0.00 0.00 50 1013.5
20260503232447 55 197 0.0 0.0 0.00 0.00 0.00 58 1013.5
20260503231818 55 189 0.0 0.9 0.00 0.00 0.00 53 1013.8
20260503231252 56 195 0.9 0.9 0.00 0.00 0.00 48 1013.5
20260503230636 58 180 0.9 0.9 0.00 0.00 0.00 45 1013.5
20260503230041 58 147 0.0 0.9 0.00 0.00 0.00 45 1013.5
20260503224223 58 202 0.0 0.0 0.00 0.00 0.00 44 1013.8
20260503223614 58 183 0.9 0.9 0.00 0.00 0.00 48 1013.5
20260503223014 58 183 0.9 0.9 0.00 0.00 0.00 46 1013.8
20260503222422 60 203 0.0 0.0 0.00 0.00 0.00 36 1013.5
20260503221820 60 163 1.7 1.7 0.00 0.00 0.00 35 1013.8
20260503221224 60 188 0.9 0.9 0.00 0.00 0.00 33 1013.8
20260503220654 60 247 0.9 0.9 0.00 0.00 0.00 33 1013.8
20260503220044 60 274 0.9 0.9 0.00 0.00 0.00 36 1013.8
20260503215439 60 212 0.9 1.7 0.00 0.00 0.00 32 1013.8
20260503214810 60 91 0.9 0.9 0.00 0.00 0.00 37 1013.8
20260503214224 60 250 1.7 1.7 0.00 0.00 0.00 38 1013.5
20260503213647 59 214 0.9 0.9 0.00 0.00 0.00 32 1013.8
20260503212440 60 42 0.9 0.9 0.00 0.00 0.00 38 1013.5
20260503211827 59 227 1.7 2.6 0.00 0.00 0.00 42 1013.8
20260503211227 59 167 0.0 0.9 0.00 0.00 0.00 35 1013.5
20260503210647 59 259 1.7 2.6 0.00 0.00 0.00 34 1013.8
20260503210017 59 87 0.0 0.9 0.00 0.00 0.00 35 1014.2
20260503205430 59 157 0.9 0.9 0.00 0.00 0.00 34 1013.8
20260503204242 59 224 0.0 0.0 0.00 0.00 0.00 33 1013.8
20260503203038 59 254 0.9 1.7 0.00 0.00 0.00 33 1014.2
20260503202422 59 176 0.0 0.9 0.00 0.00 0.00 34 1014.2
20260503201816 58 61 0.0 0.9 0.00 0.00 0.00 35 1014.5
20260503201234 58 240 0.9 2.6 0.00 0.00 0.00 37 1014.5
20260503200625 58 208 1.7 2.6 0.00 0.00 0.00 33 1014.5
20260503200026 58 240 2.6 2.6 0.00 0.00 0.00 34 1014.9
20260503195409 59 172 1.7 1.7 0.00 0.00 0.00 34 1014.9
20260503194821 58 85 1.7 3.5 0.00 0.00 0.00 37 1015.2
20260503194241 57 191 0.9 0.9 0.00 0.00 0.00 33 1015.5
20260503193621 58 184 2.6 2.6 0.00 0.00 0.00 34 1015.2
20260503193043 59 195 0.0 0.0 0.00 0.00 0.00 35 1015.5
20260503192436 58 239 1.7 3.5 0.00 0.00 0.00 35 1015.5
20260503191842 57 251 2.6 3.5 0.00 0.00 0.00 36 1015.5
20260503191249 58 193 0.0 0.9 0.00 0.00 0.00 41 1015.5
20260503190636 58 284 1.7 1.7 0.00 0.00 0.00 36 1015.5
20260503190052 56 17 1.7 1.7 0.00 0.00 0.00 41 1015.5
20260503185423 58 285 1.7 1.7 0.00 0.00 0.00 38 1015.9
20260503184846 56 153 1.7 2.6 0.00 0.00 0.00 36 1015.5
20260503184216 56 159 1.7 3.5 0.00 0.00 0.00 34 1015.9
20260503183031 56 198 0.9 0.9 0.00 0.00 0.00 35 1016.2
20260503182446 56 299 1.7 3.5 0.00 0.00 0.00 37 1016.2
20260503181853 55 205 0.9 0.9 0.00 0.00 0.00 37 1015.9
20260503181236 54 169 0.0 0.9 0.00 0.00 0.00 39 1016.2
20260503180651 55 189 0.9 1.7 0.00 0.00 0.00 35 1016.2
20260503180026 54 189 0.0 0.0 0.00 0.00 0.00 38 1016.2
20260503175417 56 177 2.6 3.5 0.00 0.00 0.00 37 1016.5
20260503174820 56 336 1.7 1.7 0.00 0.00 0.00 43 1016.5
20260503174213 54 159 1.7 1.7 0.00 0.00 0.00 36 1016.5
20260503173628 56 96 4.3 5.2 0.00 0.00 0.00 37 1016.5
20260503173035 54 206 0.0 0.9 0.00 0.00 0.00 38 1016.5
20260503172413 53 111 1.7 1.7 0.00 0.00 0.00 37 1016.5
20260503171814 53 221 0.9 1.7 0.00 0.00 0.00 38 1016.9
20260503171254 53 165 1.7 2.6 0.00 0.00 0.00 42 1016.9
20260503150630 48 51 0.9 1.7 0.00 0.00 0.00 53 1018.2
20260503130620 42 195 0.0 0.9 0.00 0.00 0.00 79 1018.2
20260503110645 29 198 0.0 0.0 0.00 0.00 0.00 99 1017.2
20260503081246 30 200 0.0 0.0 0.00 0.00 0.00 99 1016.2
20260503072411 31 201 0.0 0.0 0.00 0.00 0.00 99 1015.5
20260503071838 31 201 0.0 0.0 0.00 0.00 0.00 99 1015.9
20260503071227 31 201 0.0 0.0 0.00 0.00 0.00 99 1015.5
20260503070623 31 200 0.0 0.0 0.00 0.00 0.00 99 1015.5
20260503054237 33 199 0.0 0.0 0.00 0.00 0.00 97 1015.9
20260503053623 33 198 0.0 0.0 0.00 0.00 0.00 97 1015.5
20260503053051 33 200 0.0 0.0 0.00 0.00 0.00 97 1015.5
20260503052424 33 201 0.0 0.0 0.00 0.00 0.00 97 1015.5
20260503051854 33 200 0.0 0.0 0.00 0.00 0.00 96 1015.5
20260503051244 34 201 0.0 0.0 0.00 0.00 0.00 96 1015.5
20260503050649 34 201 0.0 0.0 0.00 0.00 0.00 96 1015.5
20260503050053 34 201 0.0 0.0 0.00 0.00 0.00 95 1015.5
20260503045418 34 201 0.0 0.0 0.00 0.00 0.00 95 1015.5
20260503044845 34 201 0.0 0.0 0.00 0.00 0.00 94 1015.5
20260503044242 34 201 0.0 0.0 0.00 0.00 0.00 94 1015.5
20260503043639 35 201 0.0 0.0 0.00 0.00 0.00 94 1015.5
20260503043016 35 203 0.0 0.0 0.00 0.00 0.00 94 1015.5
20260503042443 35 202 0.0 0.0 0.00 0.00 0.00 93 1015.5
20260503041823 35 200 0.0 0.0 0.00 0.00 0.00 92 1015.5
20260503040623 36 200 0.0 0.0 0.00 0.00 0.00 90 1015.5
20260503040047 36 204 0.0 0.0 0.00 0.00 0.00 90 1015.2
20260503035451 36 210 0.0 0.0 0.00 0.00 0.00 90 1015.5
20260503034851 37 205 0.0 0.0 0.00 0.00 0.00 89 1015.2
20260503034216 37 201 0.0 0.0 0.00 0.00 0.00 89 1015.5
20260503033638 37 201 0.0 0.0 0.00 0.00 0.00 88 1015.5
20260503032419 38 201 0.0 0.0 0.00 0.00 0.00 86 1015.2
20260503031839 38 201 0.0 0.0 0.00 0.00 0.00 85 1015.5
20260503031244 39 201 0.0 0.0 0.00 0.00 0.00 84 1015.5
20260503030642 39 207 0.0 0.0 0.00 0.00 0.00 83 1015.5
20260503030024 40 204 0.0 0.0 0.00 0.00 0.00 82 1015.5
20260503025424 40 213 0.0 0.0 0.00 0.00 0.00 82 1015.5
20260503024829 40 205 0.0 0.0 0.00 0.00 0.00 80 1015.5